This is the latest recevied weather packets stored in our database for station/object SR9WXY. If no packets are shown the sender has not sent any weather packets the latest 10 day(s).
| Time | Temp. | Humidity | Pressure | Rain* | Wind** | Luminosity | Snow |
|---|---|---|---|---|---|---|---|
| 1777863606 | 8.89° C | 51% | 882.5 hPa | - | - | - | - |
| 1777863006 | 8.33° C | 52% | 882.5 hPa | - | - | - | - |
| 1777846479 | 8.33° C | 56% | 883.4 hPa | - | - | - | - |
| 1777844677 | 8.89° C | 56% | 883.6 hPa | - | - | - | - |
| 1777844075 | 8.89° C | 56% | 883.7 hPa | - | - | - | - |
| 1777842565 | 8.89° C | 56% | 883.7 hPa | - | - | - | - |
| 1777841965 | 9.44° C | 56% | 883.8 hPa | - | - | - | - |
| 1777840766 | 8.89° C | 56% | 883.8 hPa | - | - | - | - |
| 1777840166 | 8.89° C | 56% | 883.9 hPa | - | - | - | - |
| 1777839566 | 8.89° C | 56% | 884 hPa | - | - | - | - |
| 1777839264 | 8.89° C | 56% | 884 hPa | - | - | - | - |
| 1777838664 | 8.89° C | 56% | 884 hPa | - | - | - | - |
| 1777835661 | 9.44° C | 55% | 884.1 hPa | - | - | - | - |
| 1777827549 | 12.22° C | 52% | 884 hPa | - | - | - | - |
| 1777826349 | 13.33° C | 52% | 883.9 hPa | - | - | - | - |
| 1777825747 | 13.89° C | 52% | 884 hPa | - | - | - | - |
| 1777825437 | 14.44° C | 52% | 884 hPa | - | - | - | - |
| 1777825137 | 14.44° C | 51% | 884 hPa | - | - | - | - |
| 1777824535 | 14.44° C | 51% | 884.1 hPa | - | - | - | - |
| 1777824234 | 14.44° C | 51% | 884.1 hPa | - | - | - | - |
| 1777821534 | 16.67° C | 51% | 884.2 hPa | - | - | - | - |
| 1777819132 | 17.22° C | 51% | 884.5 hPa | - | - | - | - |
| 1777817330 | 17.78° C | 52% | 884.7 hPa | - | - | - | - |
| 1777817030 | 17.78° C | 51% | 884.7 hPa | - | - | - | - |
| 1777814921 | 17.78° C | 52% | 885.1 hPa | - | - | - | - |
* Rain since midnight (hover to see other rain measurements)
** Current wind speed in m/s (hover to see current wind gust speed)